Probability
0 0 0 0 0 0 0 0 0 0 0 1 5 9 14 21 29 32 31 28 23 18 13 11 10 9 6 6 7 9 11 14 16 15 16 19 19 20 20 18 16 16 13 10
0 0 0 0 0 0 0 0 0 0 0 2 6 10 16 24 30 34 35 32 28 23 19 16 14 13 11 12 13 13 12 13 14 13 13 15 15 16 17 17 14 12 9 7
0 0 0 0 0 0 0 0 0 0 1 4 8 15 23 29 33 38 40 38 34 30 25 21 19 20 21 23 23 20 16 13 11 9 9 9 9 9 10 10 9 6 4 2
0 0 0 0 0 0 0 0 0 1 2 6 12 21 27 30 34 39 42 40 37 33 28 24 24 27 29 30 27 22 15 11 8 6 5 5 5 4 5 4 3 2 1 0
0 0 0 0 0 0 0 0 1 2 5 10 16 19 22 25 30 35 39 39 37 33 29 27 27 27 27 25 20 14 9 6 4 3 3 2 2 2 2 2 1 0 0 0
0 0 0 0 1 0 0 1 3 5 8 12 16 18 19 21 24 28 31 32 30 27 24 23 22 20 18 15 10 6 3 2 2 1 1 0 1 1 1 1 0 0 0 0
0 0 0 0 0 0 0 1 4 6 6 10 16 20 20 18 17 19 20 21 20 18 17 15 13 11 10 6 3 1 1 0 0 0 0 0 0 0 0 0 0 0 0 0
0 0 0 0 0 0 0 1 2 3 3 5 11 15 14 12 11 12 12 13 12 11 9 8 6 6 5 3 1 0 0 0 0 0 0 0 0 0 0 0 0 0 0 0
0 0 0 0 0 0 0 0 0 0 1 2 4 5 5 6 7 7 7 8 7 6 5 4 4 3 2 1 0 0 0 0 0 0 0 0 0 0 0 0 0 0 0 0
0 0 0 0 0 0 0 0 0 0 0 0 0 1 1 2 3 2 2 3 4 3 2 2 2 1 1 0 0 0 0 0 0 0 0 0 0 0 0 0 0 0 0 0
0 0 0 0 0 0 0 0 0 0 0 0 0 0 0 0 0 0 0 1 1 1 1 1 1 0 0 0 0 0 0 0 0 0 0 0 0 0 0 0 0 0 0 0
0 0 0 0 0 0 0 0 0 0 0 0 0 0 0 0 0 0 0 0 0 0 0 0 0 0 0 0 0 0 0 0 0 0 0 0 0 0 0 0 0 0 0 0
0 0 0 0 0 0 0 0 0 0 0 0 0 0 0 0 0 0 0 0 0 0 0 0 0 0 0 0 0 0 0 0 0 0 0 0 0 0 0 0 0 0 0 0
0 0 0 0 0 0 0 0 0 0 0 0 0 0 0 0 0 0 0 0 0 0 0 0 0 0 0 0 0 0 0 0 0 0 0 0 0 0 0 0 0 0 0 0
0 0 0 0 0 0 0 0 0 0 0 0 0 0 0 0 0 0 0 0 0 0 0 0 0 0 0 0 0 0 0 0 0 0 0 0 0 0 0 0 0 0 0 0
0 0 0 0 0 0 0 0 0 0 0 0 0 0 0 0 0 0 0 0 0 0 0 0 0 0 0 0 0 0 0 0 0 0 0 0 0 0 0 0 0 0 0 0
0 0 0 0 0 0 0 0 0 0 0 0 0 0 0 0 0 0 0 0 0 0 0 0 0 0 0 0 0 0 0 0 0 0 0 0 0 0 0 0 0 0 0 0
0 0 0 0 0 0 0 0 0 0 0 0 0 0 0 0 0 0 0 0 0 0 0 0 0 0 0 0 0 0 0 0 0 0 0 0 0 0 0 0 0 0 0 0
0 0 0 0 0 0 0 0 0 0 0 0 0 0 0 0 0 0 0 0 0 0 0 0 0 0 0 0 0 0 0 0 0 0 0 0 0 0 0 0 0 0 0 0
0 0 0 0 0 0 0 0 0 0 0 0 0 0 0 0 0 0 0 0 0 0 0 0 0 0 0 0 0 0 0 0 0 0 0 0 0 0 0 0 0 0 0 0
0 0 0 0 0 0 0 0 0 0 0 0 0 0 0 0 0 0 0 0 0 0 0 0 0 0 0 0 0 0 0 0 0 0 0 0 0 0 0 0 0 0 0 0
0 0 0 0 0 0 0 0 0 0 0 0 0 0 0 0 0 0 0 0 0 0 0 0 0 0 0 0 0 0 0 0 0 0 0 0 0 0 0 0 0 0 0 0
0 0 0 0 0 0 0 0 0 0 0 0 0 0 0 0 0 0 0 0 0 0 0 0 0 0 0 0 0 0 0 0 0 0 0 0 0 0 0 0 0 0 0 0
0 0 0 0 0 0 0 0 0 0 0 0 0 0 0 0 0 0 0 0 0 0 0 0 0 0 0 0 0 0 0 0 0 0 0 0 0 0 0 0 0 0 0 0
0 0 0 0 0 0 0 0 0 0 0 0 0 0 0 0 0 0 0 0 0 0 0 0 0 0 0 0 0 0 0 0 0 0 0 0 0 0 0 0 0 0 0 0
0 0 0 0 0 0 0 0 0 0 0 0 0 0 0 0 0 0 0 0 0 0 0 0 0 0 0 0 0 0 0 0 0 0 0 0 0 0 0 0 0 0 0 0
0 0 0 0 0 0 0 0 0 0 0 0 0 0 0 0 0 0 0 0 0 0 0 0 0 0 0 0 0 0 0 0 0 0 0 0 0 0 0 0 0 0 0 0
Wind_Speed
10 8 8 11 12 12 14 15 16 15 14 10 5 3 6 9 12 13 14 14 13 13 11 11 11 11 10 10 10 10 10 9 9 7 7 7 6 6 5 5 4 4 3 3
11 11 12 14 15 16 17 17 18 18 18 11 4 3 5 9 12 14 14 14 14 13 12 11 11 10 10 9 9 9 9 9 8 7 7 7 6 6 6 5 5 5 4 4
12 10 12 16 15 16 17 17 17 18 16 10 7 5 5 8 12 13 13 13 13 12 11 10 10 9 9 9 9 9 9 9 9 9 8 8 8 8 8 7 7 6 6 6
10 9 15 8 3 7 12 14 15 15 13 10 6 2 2 4 8 10 11 11 11 10 10 9 9 10 10 10 9 9 10 10 9 9 10 9 9 9 8 7 8 8 8 8
8 12 12 10 4 6 10 13 9 10 10 6 2 3 2 2 5 7 8 9 9 9 10 10 11 11 12 11 11 11 10 10 10 10 10 10 10 9 9 8 9 9 9 9
8 10 10 3 3 4 8 10 3 6 7 4 5 7 4 6 7 8 9 9 10 11 12 11 11 12 14 13 13 12 11 11 11 10 11 10 10 10 9 8 9 9 9 8
11 11 9 2 3 5 9 3 7 7 7 5 6 3 8 10 10 10 11 12 12 12 12 12 12 13 15 14 13 12 12 12 12 11 11 11 10 9 9 8 8 8 8 8
7 9 5 4 4 6 7 10 11 10 7 3 3 8 11 11 12 13 13 13 14 13 13 12 12 14 15 14 13 13 13 13 12 11 10 10 10 9 8 8 8 7 6 6
5 5 5 4 7 9 11 12 11 8 5 3 8 10 12 13 13 14 14 14 14 15 15 13 12 13 15 13 13 13 13 13 12 12 10 9 9 8 7 5 4 4 4 4
7 7 7 8 8 8 8 8 7 4 2 7 11 13 14 13 14 14 15 14 15 16 16 14 13 13 13 12 12 13 13 12 11 10 10 8 5 5 5 4 3 3 3 2
9 8 7 5 6 6 5 4 1 3 7 11 14 15 15 14 14 13 13 13 14 15 15 14 12 12 11 11 11 12 12 10 10 10 9 8 9 9 8 10 9 6 5 5
6 5 5 6 7 5 2 3 6 11 12 13 15 17 16 14 13 12 13 13 14 15 15 13 12 12 11 10 10 10 9 8 7 7 7 7 8 9 15 12 13 14 13 10
4 5 4 4 3 3 6 8 11 14 15 16 15 16 17 15 12 13 13 13 14 14 14 13 13 12 10 9 9 9 8 7 6 6 5 5 5 5 7 8 10 12 11 11
2 1 2 3 5 8 11 14 15 17 16 16 16 16 15 15 14 13 13 13 13 14 13 13 13 11 10 9 9 9 8 7 5 5 4 4 4 3 3 3 5 6 8 7
3 3 5 6 9 10 12 15 17 17 17 17 16 15 15 15 14 13 12 12 12 13 13 13 12 10 9 9 9 8 7 6 5 5 4 4 4 3 3 3 3 3 3 5
6 8 10 11 11 12 14 16 17 17 17 16 15 15 14 14 13 12 12 12 12 12 11 11 11 9 8 8 8 8 8 8 5 4 4 4 4 3 3 3 3 3 3 5
9 10 12 13 13 13 14 15 16 16 16 16 16 15 15 15 14 13 12 12 12 12 10 10 10 8 8 7 6 6 6 6 4 4 5 4 4 4 4 3 4 3 4 6
8 11 12 14 14 15 15 15 15 16 15 16 16 15 14 14 13 13 12 12 12 11 10 9 9 8 8 7 6 5 5 5 5 5 5 5 4 3 3 3 4 4 4 3
12 14 14 14 14 14 14 15 15 15 15 14 15 14 13 13 12 12 12 11 11 10 9 9 8 8 9 7 5 5 5 5 5 5 5 3 1 3 4 4 4 4 5 5
14 15 16 15 14 14 14 14 15 14 13 14 14 14 13 12 12 11 11 9 7 8 9 8 8 8 8 6 3 5 5 5 5 4 3 3 3 3 3 4 4 5 5 5
15 15 16 15 14 14 14 14 14 13 13 13 13 13 13 12 11 10 9 9 9 9 9 7 6 7 7 5 2 5 5 5 4 4 3 3 3 3 4 4 4 4 4 4
13 14 15 15 14 13 12 12 12 13 12 12 13 13 12 11 10 9 8 8 9 6 6 6 7 8 4 1 4 5 5 4 4 3 3 3 3 3 3 3 3 4 4 4
12 13 14 14 13 13 13 12 12 11 12 11 11 11 10 8 7 7 8 7 8 5 5 7 9 6 1 2 4 5 5 4 3 3 3 3 3 3 3 3 3 3 4 4
12 12 12 12 12 12 12 11 10 9 10 10 9 9 8 7 6 6 8 9 7 6 7 9 7 4 4 2 3 3 4 3 2 2 2 2 2 2 2 2 3 3 3 4
11 12 12 12 11 9 10 10 11 10 9 8 9 8 6 5 6 8 9 11 9 7 9 9 6 4 3 2 3 3 3 3 3 2 2 1 2 2 1 2 2 3 3 4
9 8 8 8 7 7 7 7 7 7 7 7 6 6 6 6 8 9 8 10 11 7 7 7 7 6 3 3 3 2 3 4 3 2 1 0 1 1 2 2 3 4 4 4
8 8 6 7 6 6 5 6 6 6 6 6 6 6 6 7 8 8 9 9 8 7 6 5 5 4 3 3 3 3 2 2 1 1 1 1 2 3 3 4 4 4 5 5
Wind_Direction
272 283 272 265 259 249 248 260 270 276 277 280 284 241 198 185 179 174 172 175 176 174 172 174 173 173 175 175 174 175 176 175 170 168 167 166 162 161 163 164 163 155 150 144
263 264 266 266 262 259 257 259 263 270 273 286 299 262 209 195 186 181 177 176 173 170 168 170 171 171 168 168 164 165 166 161 151 150 152 150 149 144 138 132 125 122 118 111
267 271 274 260 257 259 261 260 262 265 273 282 269 253 229 204 193 186 178 173 169 166 163 161 160 159 156 150 146 148 143 137 135 136 132 130 129 126 123 118 112 106 99 92
270 269 256 268 309 287 279 277 274 274 276 280 287 294 255 221 193 178 172 164 158 153 148 145 141 136 131 130 129 126 123 123 124 125 119 115 112 110 109 107 103 100 95 91
259 256 262 264 269 292 284 279 289 289 287 275 192 176 190 174 166 161 154 146 140 136 132 129 129 129 125 121 116 112 111 113 115 114 112 111 109 107 105 105 102 101 95 92
247 260 264 276 52 341 288 266 349 328 306 269 217 229 170 123 119 117 117 119 119 118 117 116 118 119 116 111 107 105 104 103 101 102 106 107 107 107 105 104 103 101 94 88
251 255 262 343 357 286 257 317 10 337 320 286 259 300 105 114 111 113 112 111 112 110 108 110 114 113 108 105 103 104 105 104 102 102 104 105 105 106 110 108 104 101 101 94
244 248 255 56 309 284 312 327 318 313 309 306 84 107 117 118 117 114 111 112 110 105 101 102 107 109 105 103 106 107 106 104 103 105 105 105 105 105 108 115 119 116 112 109
261 278 337 324 299 300 300 295 296 295 289 163 133 128 122 118 114 111 110 107 106 104 98 95 97 102 103 106 110 109 106 103 103 101 100 106 112 118 123 126 122 120 121 113
268 269 293 306 309 308 305 299 299 285 196 143 134 126 119 114 111 109 107 106 105 101 98 95 94 94 97 103 105 105 105 105 105 105 102 93 89 92 87 78 82 86 73 65
267 285 298 311 325 320 318 319 352 99 120 126 124 119 115 111 107 106 105 102 101 100 100 98 96 96 99 103 105 106 107 108 108 102 96 88 70 46 53 50 35 27 33 30
295 328 315 319 326 332 12 83 110 113 110 108 113 115 112 108 106 108 107 105 106 105 105 103 100 96 95 98 102 108 110 110 109 110 111 113 108 91 59 68 70 64 50 42
317 330 338 329 357 53 99 104 109 112 113 110 109 112 112 110 109 109 109 111 111 109 108 106 101 96 94 96 96 95 97 97 102 104 110 111 115 120 120 104 89 83 77 66
11 16 50 48 76 93 102 106 109 109 109 110 112 113 114 114 114 113 113 112 113 111 108 104 99 94 94 96 96 98 99 93 90 90 86 84 83 85 92 112 126 117 113 108
63 77 99 97 98 103 108 114 113 113 114 115 117 118 120 118 117 115 116 117 115 111 108 104 99 94 95 98 95 89 85 84 78 82 84 81 79 77 70 62 62 64 94 134
105 104 105 103 104 111 116 119 118 119 120 120 120 118 116 113 113 114 117 118 113 107 104 100 97 95 96 99 100 93 82 64 61 82 83 81 71 62 58 51 51 44 32 25
128 121 117 113 112 114 116 116 117 120 122 122 120 120 118 117 115 112 110 107 103 102 102 101 99 98 96 95 95 96 101 103 103 82 71 65 62 57 52 41 37 25 45 63
120 120 120 122 122 120 118 118 120 123 124 125 125 125 126 125 121 118 116 113 108 101 95 96 100 102 97 91 87 90 96 93 83 76 76 61 49 58 53 45 36 19 16 93
119 118 117 117 117 118 120 121 121 121 124 128 129 128 125 123 122 122 122 119 115 108 99 98 101 105 100 95 97 99 94 95 92 86 86 100 73 57 46 36 25 17 11 4
117 118 118 117 117 117 118 120 120 121 125 127 125 123 121 121 123 123 119 109 99 104 115 115 115 106 104 94 73 94 91 89 89 88 81 75 63 54 42 33 21 13 8 4
118 118 119 118 117 117 118 120 120 122 124 126 126 124 123 124 127 128 124 112 105 108 113 116 115 110 102 105 112 96 94 88 86 79 72 64 55 47 40 28 18 9 8 2
117 118 117 116 114 113 115 117 119 121 121 122 123 124 126 127 126 117 105 109 120 129 137 123 107 92 93 144 108 96 92 87 81 78 69 58 49 42 38 25 19 15 10 3
116 116 117 117 117 116 115 115 117 119 120 122 125 128 126 123 128 130 124 123 132 142 127 103 105 115 232 168 99 96 91 85 78 77 72 60 52 42 35 26 21 13 8 359
115 115 116 117 116 114 114 114 114 115 118 121 121 124 127 128 123 112 111 117 120 133 114 110 127 151 243 133 103 98 94 95 95 84 73 64 54 46 37 22 13 7 3 351
114 116 119 122 119 117 119 122 121 124 124 121 124 129 128 123 124 121 126 132 139 145 130 134 156 204 217 118 107 101 100 76 52 42 83 59 38 42 21 1 353 342 342 338
114 115 114 114 114 125 133 132 130 128 127 127 125 124 121 119 123 129 135 142 146 150 145 149 164 194 184 143 131 133 130 138 162 187 83 4 335 324 326 330 319 317 319 319
117 117 118 119 123 127 128 129 130 132 132 133 133 133 135 136 139 142 145 149 156 161 160 162 164 170 162 151 145 152 156 151 159 183 213 253 278 285 291 290 295 300 300 302